TimeMDT,TemperatureF,Dew PointF,Humidity,Sea Level PressureIn,VisibilityMPH,Wind Direction,Wind SpeedMPH,Gust SpeedMPH,PrecipitationIn,Events,Conditions,WindDirDegrees,DateUTC
12:53 AM,41.0,35.1,79,29.99,10.0,South,18.4,26.5,N/A,,Clear,190,2014-04-18 06:53:00
1:53 AM,39.9,34.0,79,29.97,10.0,South,17.3,25.3,N/A,,Clear,190,2014-04-18 07:53:00
2:53 AM,39.0,34.0,82,29.96,10.0,South,11.5,-,N/A,,Clear,180,2014-04-18 08:53:00
3:53 AM,37.9,33.1,83,29.96,10.0,South,10.4,-,N/A,,Clear,180,2014-04-18 09:53:00
4:53 AM,39.0,33.1,79,29.94,10.0,SSW,11.5,-,N/A,,Clear,200,2014-04-18 10:53:00
5:53 AM,39.9,33.1,77,29.93,10.0,SSW,12.7,-,N/A,,Clear,210,2014-04-18 11:53:00
6:53 AM,46.0,34.0,63,29.93,10.0,SSW,12.7,-,N/A,,Clear,210,2014-04-18 12:53:00
7:53 AM,53.1,36.0,52,29.93,10.0,SW,13.8,-,N/A,,Clear,220,2014-04-18 13:53:00
8:53 AM,59.0,35.1,41,29.91,10.0,SW,9.2,-,N/A,,Clear,220,2014-04-18 14:53:00
9:53 AM,64.9,33.1,31,29.90,10.0,SW,8.1,-,N/A,,Clear,220,2014-04-18 15:53:00
10:53 AM,71.1,25.0,18,29.88,10.0,South,9.2,-,N/A,,Clear,180,2014-04-18 16:53:00
11:53 AM,72.0,28.0,20,29.87,10.0,South,6.9,-,N/A,,Clear,170,2014-04-18 17:53:00
12:53 PM,73.9,27.0,18,29.85,10.0,South,13.8,26.5,N/A,,Clear,170,2014-04-18 18:53:00
1:53 PM,75.9,24.1,15,29.83,10.0,SSE,12.7,24.2,N/A,,Clear,160,2014-04-18 19:53:00
3:53 PM,77.0,25.0,15,29.77,10.0,SSE,12.7,-,N/A,,Clear,150,2014-04-18 21:53:00
4:53 PM,77.0,24.1,14,29.76,10.0,South,18.4,25.3,N/A,,Clear,180,2014-04-18 22:53:00
6:53 PM,70.0,33.1,26,29.76,10.0,SSE,19.6,-,N/A,,Clear,150,2014-04-19 00:53:00
7:53 PM,64.0,32.0,30,29.75,10.0,SE,15.0,-,N/A,,Clear,140,2014-04-19 01:53:00
9:53 PM,60.1,37.0,42,29.75,10.0,SSE,15.0,-,N/A,,Clear,150,2014-04-19 03:53:00
10:53 PM,57.0,39.0,51,29.73,10.0,SSE,13.8,-,N/A,,Clear,160,2014-04-19 04:53:00
11:53 PM,54.0,39.9,59,29.73,10.0,South,15.0,23.0,N/A,,Clear,170,2014-04-19 05:53:00